#timestamp,LO_Frequency,Hit 
1501311615.7,286046996.9,P
1501311635.5,286046997.4,P
1501311655.3,286046997.2,P
1501311675.2,286046999.4,P
1501311695.0,286047000.0,N
1501311695.9,286047000.0,N
1501311715.8,286047001.1,N
1501311735.6,286046998.6,N
1501311755.4,286046998.3,N
1501311775.3,286047000.7,N
1501311795.1,286047001.2,N
1501311815.8,286046998.1,N
1501311835.7,286046999.4,N
1501311855.5,286046997.3,N
1501311875.4,286046996.8,N
1501311895.2,286046997.1,N
1501311915.0,286046997.0,N
1501311915.9,286046997.0,N
1501311935.8,286046999.0,N
1501311955.6,286047000.9,N
1501311975.4,286046999.7,N
1501311995.3,286047002.7,N
1501312015.1,286047000.2,N
1501312035.9,286046998.5,N
1501312055.7,286047000.9,N
1501312075.5,286047001.2,N
1501312095.4,286047001.0,N
1501312115.2,286046998.3,N
1501312135.0,286046998.1,N
1501312135.9,286046998.1,N
1501312155.8,286047000.6,N
1501312175.6,286047001.9,N
1501312195.5,286047003.5,N
1501312215.3,286047005.9,P
1501312235.1,286047003.1,N
1501312255.9,286047004.2,N
1501312275.7,286047002.0,N
1501312295.6,286047000.9,N
1501312315.4,286046998.5,N
1501312335.2,286047001.2,N
1501312355.1,286047001.1,P
1501312356.0,286047001.1,N
1501312375.8,286046996.8,P
1501312395.7,286046997.5,N
1501312415.5,286046993.3,P
1501312435.3,286046995.8,N
1501312455.2,286046996.0,N
1501312475.0,286046996.3,N
1501312475.9,286046996.3,N
1501312495.7,286046998.0,N
1501312515.6,286046998.8,N
1501312535.4,286046997.0,N
1501312555.3,286046997.4,N
1501312575.1,286046997.6,N
1501312576.0,286046997.6,N
1501312595.8,286046996.9,N
1501312615.7,286046997.5,N
1501312635.5,286046996.2,N
1501312655.3,286046996.2,N
1501312675.2,286046995.2,P
1501312695.0,286046998.2,N
1501312695.9,286046998.2,N
1501312715.8,286046999.7,N
1501312735.6,286047002.7,N
1501312755.4,286047000.3,N
1501312775.3,286047000.5,N
1501312795.1,286046999.7,N
1501312815.9,286047001.5,N
1501312865.7,286047000.5,E
1501312875.6,286047002.8,N
1501312895.5,286047000.5,P
1501312915.3,286046999.9,N
1501312935.2,286047000.8,N
1501312955.9,286047000.3,N
1501312975.7,286047002.8,N
1501312995.6,286047002.4,N
1501313015.4,286047000.3,N
1501313035.2,286047000.3,N
1501313055.1,286047000.5,N
1501313056.0,286047000.5,N
1501313075.8,286046998.7,N
1501313095.7,286046997.2,N
1501313115.5,286046999.0,N
1501313135.3,286047000.8,N
1501313155.2,286047000.0,N
1501313175.0,286047002.8,N
1501313175.9,286047002.8,N
1501313195.8,286047002.4,N
1501313215.6,286047002.6,N
1501313235.4,286046999.8,N
1501313255.3,286047000.0,N
1501313275.1,286046999.7,N
1501313295.8,286047001.0,N
1501313315.7,286047000.7,N
1501313335.5,286046999.7,N
1501313355.3,286047000.2,N
1501313375.2,286047000.2,N
1501313395.0,286046998.4,N
1501313395.9,286046998.4,N
1501313415.8,286046999.6,N
1501313435.6,286046996.7,N
1501313455.4,286046996.9,N
1501313475.3,286046997.6,N
1501313495.1,286046999.3,N
1501313515.9,286046999.4,N
1501313535.7,286046996.8,N
1501313555.5,286046994.9,P
1501313575.4,286046996.0,N
1501313595.2,286046995.3,N
1501313615.0,286046995.8,N
1501313615.9,286046995.8,N
1501313635.8,286046993.3,P
1501313655.6,286046999.0,N
1501313675.5,286047000.8,N
1501313695.3,286047002.1,N
1501313715.1,286047001.6,N
1501313735.9,286047002.2,N
1501313755.7,286047002.6,N
1501313775.5,286047000.1,N
1501313795.4,286047002.8,N
1501313815.2,286047001.9,N
1501313835.1,286047002.2,N
1501313836.0,286047002.2,N
1501313855.8,286047000.9,N
1501313875.6,286046998.1,N
1501313895.5,286046999.1,N
1501313915.3,286047001.2,N
1501313935.1,286046999.8,N
1501313955.9,286047002.5,N
1501313975.7,286047002.4,N
1501313995.6,286047002.4,N
1501314015.4,286047000.3,N
1501314035.2,286046999.6,N
1501314055.1,286046999.5,N
1501314056.0,286046999.5,N
1501314075.8,286046998.8,N
1501314095.7,286047000.8,N
1501314115.5,286047000.4,N
1501314135.3,286046998.1,N
1501314155.2,286046998.9,N
1501314175.0,286046999.5,N
1501314175.9,286046999.5,N
1501314195.7,286046997.0,N
1501314215.6,286047001.2,N
1501314235.4,286047001.0,N
1501314255.3,286046999.3,N
1501314275.1,286046999.1,N
1501314276.0,286046999.1,N
1501314295.8,286046998.6,N
1501314315.7,286046998.6,N
1501314335.5,28601501314635.5,286047001.1,P
1501314655.3,286046999.2,N
1501314675.2,286046999.0,N
1501314695.9,286046996.7,P
1501314715.7,286047000.1,N
1501314735.6,286047003.2,N
1501314755.4,286047001.8,N
1501314775.3,286047002.7,N
1501314795.1,286046999.7,N
1501314796.0,286046999.7,N
1501314815.8,286047000.8,N
1501314835.7,286047001.2,N
1501314855.5,286046999.4,N
1501314875.3,286046999.1,N
1501314895.2,286046996.7,N
1501314915.0,286046999.6,N
1501314915.9,286046999.6,N
1501314935.8,286046997.1,N
1501314955.6,286046996.8,N
1501314975.4,286046997.0,N
1501314995.3,286046996.7,N
1501315015.1,286046997.1,N
1501315035.8,286046997.4,N
1501315055.7,286046997.3,N
1501315075.5,286046999.6,N
1501315095.4,286046999.6,N
1501315115.2,286046996.5,N
1501315135.0,286046996.5,N
1501315135.9,286046996.5,N
1501315155.8,286046996.5,N
1501315175.6,286046999.3,N
1501315195.4,286046997.1,N
